Flag for Colombia Weather past 2 weeks in Cali, Colombia

Now
72 °F

Passing clouds.


Feels Like: 69 °F
Forecast: 67 / 81 °F
Wind: 3 mph from Southwest

Location: Cali / Alfonso Bonillaaragon

Current Time: Apr 18, 2015 at 10:33:49 PM

Latest Report: Apr 18, 2015 at 10:00 PM


Visibility: N/A

Pressure: 29.97 "Hg

Humidity: 88%

Dew point: 68 °F

Location of CaliLocation

Historic Weather in Cali — Graph

°F

Cali temperature yesterday

Maximum temperature yesterday: 81 °F (at 3:00 PM)
Minimum temperature yesterday: 64 °F (at 6:00 AM)
Average temperature yesterday: 72 °F

Past Weeks' High & Low Weather Summary

 TemperatureHumidityPressure
High91 °F (Apr 7, 3:00 PM)100% (Apr 4, 4:00 AM)30.12 "Hg (Apr 4, 4:00 AM)
Low64 °F (Apr 6, 6:00 AM)41% (Apr 7, 3:00 PM)29.77 "Hg (Apr 7, 4:00 PM)
Average75 °F77%29.95 "Hg
* Reported Apr 3 9:00 PM — Apr 18 9:00 PM, Cali, Weather by CustomWeather, © 2015

Note: Actual official high and low records may vary slightly from our data, if they occured in-between our weather recording intervals... More about our weather records

Advertising

Cali weather history for previous 24 hours

 ConditionsComfort  
Time TempWeatherWind HumidityBarometerVisibility
9:00 PM
Sat, Apr 18
73 °FPassing clouds.7 mph83%29.94 "HgN/A
8:00 PM75 °FPassing clouds.3 mph74%29.93 "HgN/A
7:00 PM79 °FPassing clouds.8 mph65%29.90 "HgN/A
6:00 PM82 °FBroken clouds.12 mph62%29.86 "HgN/A
5:00 PM84 °FScattered showers. Broken clouds.12 mph58%29.84 "HgN/A
4:00 PM86 °FScattered showers. Broken clouds.12 mph55%29.85 "Hg6 mi
3:00 PM88 °FScattered showers. Scattered clouds.6 mph46%29.86 "HgN/A
2:00 PM90 °FScattered clouds.3 mph43%29.90 "HgN/A
1:00 PM88 °FScattered clouds.3 mph46%29.94 "HgN/A
12:00 PM86 °FScattered clouds.3 mph52%29.99 "HgN/A
11:00 AM82 °FScattered clouds.3 mph58%30.02 "HgN/A
10:00 AM81 °FScattered clouds.3 mph62%30.05 "HgN/A
9:00 AM77 °FScattered clouds.3 mph69%30.06 "HgN/A
8:00 AM72 °FPartly sunny.3 mph88%30.06 "HgN/A
7:00 AM68 °FScattered clouds.3 mph94%30.03 "HgN/A
6:00 AM66 °FBroken clouds.6 mph100%30.01 "Hg6 mi
5:00 AM66 °FPartly cloudy.5 mph100%29.99 "HgN/A
4:00 AM66 °FPartly cloudy.5 mph100%29.97 "HgN/A
3:00 AM66 °FPartly cloudy.5 mph94%29.96 "HgN/A
2:00 AM68 °FPartly cloudy.5 mph94%29.99 "HgN/A
1:00 AM68 °FPartly cloudy.No wind94%30.02 "HgN/A
12:00 AM68 °FPassing clouds.3 mph94%30.04 "HgN/A
11:00 PM
Fri, Apr 17
70 °FPassing clouds.3 mph94%30.04 "HgN/A
10:00 PM70 °FPassing clouds.7 mph94%30.04 "HgN/A
Weather by CustomWeather, © 2015

See weather overviewHow to use our weather pages